Погода в Нэкэмте

Эфиопия     9°05′11″N   36°32′15″E
темп.,
°C
ветер,
м/с
пор.,
м/с
влажн.,
%
обл.,
%
осадки,
мм/ч
давл.,
гПа
погр.,
м
23 апреля, пт
пт2300:00+19в1158100 0.1 101423
03:00+18вюв1262100 0.1 101245
06:00+16вюв247495 0.4 1014144
09:00+17в1372100 0.8 1016122
12:00+24вюв124097 0.3 10121084
15:00+24ссз324298 0.4 10081321
18:00+18вюв2372100 1.6 1011171
21:00+16юв2385100 2.5 1014120
24 апреля, сб
сб2400:00+16вюв238298 0.0 101463
03:00+14вюв238997 0.1 101382
06:00+15вюв228684 0.1 101459
09:00+17вюв127498 0.1 1015166
12:00+26сз134072 0.1 10111670
15:00+21юз136091 0.4 1009187
18:00+19в256177 0.1 1010263
21:00+16в1391100 5.3 1015101
25 апреля, вс
вс2500:00+16вюв2389100 5.7 1015100
03:00+15вюв2288100 5.7 101360
06:00+15юв2391100 0.0 101491
09:00+19юв226866 0.1 1015475
12:00+26всв2343100 0.8 10122062
15:00+25ссв134488 1.2 10081575
18:00+18юв2572100 0.5 1011207
21:00+16вюв2492100 1.1 1015181
26 апреля, пн
пн2600:00+15вюв2396100 0.1 101599
03:00+14вюв249782 0.3 1014145
06:00+15вюв2494100 1.7 1015135
09:00+16вюв2390100 3.0 1016161
12:00+18вюв2479100 1.5 1015301
15:00+17юв3580100 2.3 1013355
18:00+15сз1393100 2.8 1014136
21:00+15с1394100 3.9 101692
27 апреля, вт
вт2700:00+14сз1196100 0.0 101672
03:00+14ссз129799 0.1 101495
06:00+14св1195100 0.1 101521
09:00+17с118499 0.2 1016406
12:00+20с127164 1.2 1014554
15:00+21зсз236226 3.6 10111047
18:00+20ссз2367100 0.4 1011144
21:00+16в117810 0.6 101412